Location: Izdebno
(52.6670°N, 16.2170°E)
Time: 04:05:26
(UTC+02:00)

Transit 4A - Pass Details

Date: 27 February 2024
Orbit: 871 x 972 km, 66.8° (Epoch: 22 April)

Event Time Altitude Azimuth Distance (km) Brightness Sun altitude
Rises 08:50:18 0° 320° (NW) 3,514 10.3 15.8°
Reaches altitude 10° 08:52:50 10° 321° (NW) 2,559 9.7 16.1°
Maximum altitude 08:58:45 85° 50° (NE) 886 8.2 16.8°
Drops below altitude 10° 09:04:35 10° 140° (SE) 2,516 12.5 17.5°
Sets 09:07:02 0° 141° (SE) 3,451 12.5 17.8°
